EW3608 Weather Reports


Display with metric or nautical units.
time (UTC)temp
F
wind
direction
speed
MPH
gust
MPH
rain 1hr
in
rain 24hr
in
rain mn
in
humidity
%
barometer
mb
20260902031511 73 205 0.0 2.0 0.00 0.00 0.00 45 1018.6
20260902031008 73 205 0.0 2.0 0.00 0.00 0.00 44 1018.6
20260902030513 74 205 0.0 2.0 0.00 0.00 0.00 42 1018.5
20260902030022 74 229 0.0 2.0 0.00 0.00 0.00 41 1018.7
20260902025516 75 229 0.0 2.0 0.00 0.00 0.00 41 1018.5
20260902025019 76 46 0.0 2.0 0.00 0.00 0.00 39 1018.5
20260902024529 76 46 0.0 2.0 0.00 0.01 0.00 39 1018.4
20260902024003 76 46 1.0 2.0 0.00 0.01 0.00 37 1018.2
20260902023505 77 19 0.0 3.0 0.00 0.01 0.00 37 1018.0
20260902023017 77 337 1.0 5.0 0.00 0.05 0.00 37 1017.8
20260902022512 77 21 2.0 6.0 0.00 0.07 0.00 37 1017.8
20260902022016 77 22 1.0 10.0 0.00 0.07 0.00 37 1017.8
20260902021525 76 350 3.0 10.0 0.00 0.07 0.00 37 1017.8
20260902021014 76 39 1.0 3.0 0.00 0.07 0.00 38 1017.7
20260902020517 76 15 1.0 2.0 0.00 0.07 0.00 38 1017.6
20260902020008 77 65 0.0 2.0 0.00 0.07 0.00 36 1017.5
20260902015508 77 187 0.0 5.0 0.00 0.07 0.00 35 1017.5
20260902015007 77 134 0.0 5.0 0.00 0.07 0.00 35 1017.6
20260902014523 77 202 0.0 2.0 0.00 0.07 0.00 37 1017.6
20260902014011 77 232 0.0 2.0 0.00 0.07 0.00 38 1017.5
20260902013515 78 165 0.0 2.0 0.00 0.07 0.00 37 1017.4
20260902013029 78 165 0.0 2.0 0.00 0.07 0.00 37 1017.3
20260902012515 79 196 0.0 2.0 0.00 0.07 0.00 38 1017.4
20260902012006 79 168 0.0 2.0 0.00 0.07 0.00 37 1017.4
20260902011518 80 93 0.0 2.0 0.00 0.07 0.00 35 1017.2
20260902011008 80 93 0.0 2.0 0.00 0.07 0.00 35 1017.1
20260902010514 81 93 0.0 3.0 0.00 0.07 0.00 35 1017.0
20260902010035 81 86 0.0 3.0 0.00 0.07 0.00 33 1016.9
20260902005518 81 69 0.0 3.0 0.00 0.07 0.00 34 1016.8
20260902005017 81 40 0.0 3.0 0.00 0.07 0.00 33 1016.8
20260902004536 81 94 1.0 3.0 0.00 0.07 0.00 32 1016.9
20260902004005 81 74 0.0 2.0 0.00 0.07 0.00 34 1016.9
20260902003507 81 92 0.0 2.0 0.00 0.07 0.00 34 1017.0
20260902003104 81 50 0.0 3.0 0.00 0.07 0.00 34 1017.0
20260902002511 81 49 1.0 3.0 0.00 0.07 0.00 32 1017.0
20260902002015 82 43 1.0 4.0 0.00 0.07 0.00 32 1017.0
20260902001534 82 86 1.0 7.0 0.00 0.07 0.00 33 1017.0
20260902001016 82 73 1.0 7.0 0.00 0.07 0.00 32 1017.0
20260902000503 83 13 2.0 6.0 0.00 0.07 0.00 30 1017.0
20260902000016 83 75 3.0 5.0 0.00 0.07 0.00 28 1016.9
20260901235508 83 13 2.0 4.0 0.00 0.07 0.00 29 1016.9
20260901235011 84 59 2.0 4.0 0.00 0.07 0.00 28 1016.9
20260901234524 84 32 1.0 4.0 0.00 0.07 0.00 29 1016.9
20260901234016 84 352 0.0 5.0 0.00 0.07 0.00 29 1016.9
20260901233520 84 34 2.0 5.0 0.00 0.07 0.00 29 1016.9
20260901233036 84 56 2.0 6.0 0.00 0.07 0.00 28 1016.9
20260901232509 85 78 3.0 6.0 0.00 0.07 0.00 28 1016.8
20260901232007 86 9 1.0 6.0 0.00 0.07 0.00 27 1016.8
20260901231516 86 300 3.0 6.0 0.00 0.07 0.00 25 1016.8
20260901231012 87 46 2.0 9.0 0.00 0.07 0.00 25 1016.9
20260901230514 87 332 3.0 15.0 0.00 0.07 0.00 24 1016.8
20260901230029 88 44 7.0 15.0 0.00 0.07 0.00 24 1016.5
20260901225517 89 293 3.0 12.0 0.00 0.07 0.00 22 1016.7
20260901225017 89 310 2.0 12.0 0.00 0.07 0.00 22 1016.7
20260901224510 89 240 3.0 10.0 0.00 0.07 0.00 21 1016.6
20260901224008 90 282 2.0 8.0 0.00 0.07 0.00 21 1016.6
20260901223512 90 174 0.0 8.0 0.00 0.07 0.00 21 1016.6
20260901223023 90 338 3.0 12.0 0.00 0.07 0.00 20 1016.7
20260901222516 90 279 3.0 12.0 0.00 0.07 0.00 20 1016.8
20260901222013 89 212 3.0 11.0 0.00 0.07 0.00 21 1016.8
20260901221539 89 218 2.0 14.0 0.00 0.07 0.00 21 1017.0
20260901221018 89 24 2.0 14.0 0.00 0.07 0.00 21 1017.0
20260901220508 88 254 1.0 15.0 0.00 0.07 0.00 21 1017.2
20260901220023 88 45 2.0 15.0 0.00 0.07 0.00 22 1017.3
20260901215512 88 248 2.0 7.0 0.00 0.07 0.00 23 1017.4
20260901215016 87 286 1.0 6.0 0.00 0.07 0.00 23 1017.4
20260901214526 86 218 1.0 4.0 0.00 0.07 0.00 23 1017.5
20260901214015 86 299 1.0 7.0 0.00 0.07 0.00 23 1017.6
20260901213504 85 253 2.0 8.0 0.00 0.07 0.00 23 1017.6
20260901213008 86 240 2.0 8.0 0.00 0.07 0.00 24 1017.7
20260901212507 86 343 2.0 6.0 0.00 0.07 0.00 23 1017.8
20260901212009 86 331 1.0 8.0 0.00 0.07 0.00 23 1017.9
20260901211521 86 238 3.0 8.0 0.00 0.07 0.00 24 1017.9
20260901211013 86 5 2.0 4.0 0.00 0.07 0.00 28 1017.9
20260901210515 86 307 1.0 4.0 0.00 0.07 0.00 28 1017.9
20260901210004 85 296 0.0 4.0 0.00 0.07 0.00 30 1018.0
20260901205504 85 38 0.0 4.0 0.00 0.07 0.00 30 1018.0
20260901205008 85 23 1.0 4.0 0.00 0.07 0.00 30 1018.1
20260901204514 85 73 0.0 4.0 0.00 0.07 0.00 31 1018.0
20260901204011 84 199 0.0 6.0 0.00 0.07 0.00 30 1018.0
20260901203514 84 131 1.0 6.0 0.00 0.07 0.00 29 1018.1
20260901203029 84 112 1.0 4.0 0.00 0.07 0.00 31 1018.1
20260901202515 84 105 0.0 7.0 0.00 0.07 0.00 30 1018.2
20260901202007 84 198 2.0 7.0 0.00 0.07 0.00 30 1018.2
20260901201508 85 149 2.0 7.0 0.00 0.07 0.00 30 1018.1
20260901201008 86 229 2.0 7.0 0.00 0.07 0.00 29 1018.2
20260901200508 86 114 2.0 4.0 0.00 0.07 0.00 30 1018.2
20260901200020 87 184 1.0 4.0 0.00 0.07 0.00 28 1018.2
20260901195511 87 244 1.0 6.0 0.00 0.07 0.00 28 1018.2
20260901195013 87 161 1.0 6.0 0.00 0.07 0.00 28 1018.2
20260901194533 87 210 1.0 7.0 0.00 0.07 0.00 27 1018.2
20260901194003 88 96 2.0 7.0 0.00 0.07 0.00 27 1018.2
20260901193506 88 268 0.0 6.0 0.00 0.07 0.00 28 1018.1
20260901193010 87 86 1.0 6.0 0.00 0.07 0.00 29 1018.1
20260901192511 87 111 2.0 4.0 0.00 0.07 0.00 28 1018.2
20260901192010 87 145 2.0 10.0 0.00 0.07 0.00 29 1018.3
20260901191535 86 251 2.0 12.0 0.00 0.07 0.00 29 1018.3
20260901191016 87 227 4.0 12.0 0.00 0.07 0.00 25 1018.3
20260901190517 88 18 3.0 9.0 0.00 0.07 0.00 25 1018.4
20260901190012 87 194 3.0 9.0 0.00 0.07 0.00 27 1018.6
20260901185509 86 248 2.0 8.0 0.00 0.07 0.00 25 1018.5
20260901185012 86 306 2.0 9.0 0.00 0.07 0.00 25 1018.8
20260901184516 86 234 4.0 9.0 0.00 0.07 0.00 25 1018.9
20260901184012 85 92 1.0 6.0 0.00 0.07 0.00 25 1019.0
20260901183514 86 360 1.0 5.0 0.00 0.07 0.00 26 1019.2
20260901183030 86 319 2.0 5.0 0.00 0.07 0.00 30 1019.3
20260901182517 85 91 1.0 10.0 0.00 0.07 0.00 27 1019.2
20260901182006 85 260 4.0 10.0 0.00 0.07 0.00 27 1019.2
20260901181510 85 153 4.0 9.0 0.00 0.07 0.00 29 1019.2
20260901181008 85 173 3.0 10.0 0.00 0.07 0.00 26 1019.3
20260901180512 85 175 3.0 12.0 0.00 0.07 0.00 27 1019.2
20260901180029 84 254 3.0 12.0 0.00 0.07 0.00 28 1019.2
20260901175515 84 202 2.0 10.0 0.00 0.07 0.00 28 1019.3
20260901175013 83 217 3.0 15.0 0.00 0.07 0.00 27 1019.5
20260901174539 83 292 6.0 20.0 0.00 0.07 0.00 28 1019.6
20260901174008 83 360 4.0 20.0 0.00 0.07 0.00 28 1019.6
20260901173508 83 233 2.0 11.0 0.00 0.07 0.00 29 1019.7
20260901173015 83 340 2.0 12.0 0.00 0.07 0.00 29 1019.9
20260901172514 82 24 4.0 12.0 0.00 0.07 0.00 30 1019.9
20260901172014 82 226 2.0 9.0 0.00 0.07 0.00 30 1020.0
20260901171528 82 112 2.0 11.0 0.00 0.07 0.00 31 1020.0
20260901171014 81 291 2.0 13.0 0.00 0.07 0.00 32 1020.0
20260901170516 81 236 6.0 19.0 0.00 0.07 0.00 32 1020.1
20260901170009 81 182 5.0 20.0 0.00 0.07 0.00 33 1020.1
20260901165510 80 211 4.0 20.0 0.00 0.07 0.00 33 1020.1
20260901165010 80 115 4.0 15.0 0.00 0.07 0.00 34 1020.2
20260901164523 79 84 3.0 10.0 0.00 0.07 0.00 34 1020.0
20260901164016 79 191 1.0 4.0 0.00 0.07 0.00 40 1020.0
20260901163515 78 334 0.0 8.0 0.00 0.07 0.00 41 1020.0
20260901163059 77 115 0.0 8.0 0.00 0.07 0.00 42 1020.0
20260901162519 77 20 3.0 7.0 0.00 0.07 0.00 44 1019.9
20260901162007 76 115 1.0 4.0 0.00 0.07 0.00 44 1020.0
20260901161514 75 336 2.0 4.0 0.00 0.07 0.00 45 1020.1
20260901161012 73 338 1.0 2.0 0.00 0.07 0.00 49 1020.1
20260901160515 72 113 0.0 2.0 0.00 0.07 0.00 54 1020.1
20260901160026 71 137 1.0 3.0 0.00 0.07 0.00 67 1020.1
20260901155517 70 51 2.0 3.0 0.00 0.07 0.00 67 1020.2
20260901155004 70 352 1.0 2.0 0.00 0.07 0.00 71 1020.3
20260901154509 69 63 0.0 3.0 0.00 0.07 0.00 71 1020.3
20260901154007 69 9 1.0 4.0 0.00 0.07 0.00 70 1020.4
20260901153510 68 9 1.0 4.0 0.00 0.07 0.00 72 1020.4
20260901153035 67 26 1.0 3.0 0.00 0.07 0.00 74 1020.5
20260901152511 67 256 0.0 2.0 0.00 0.07 0.00 76 1020.5
20260901152015 66 47 1.0 2.0 0.00 0.07 0.00 74 1020.5
20260901151508 66 18 1.0 2.0 0.00 0.07 0.00 76 1020.6
20260901151005 65 20 0.0 0.0 0.00 0.07 0.00 78 1020.6
20260901150505 65 20 0.0 2.0 0.00 0.07 0.00 77 1020.5
20260901150012 65 20 0.0 2.0 0.00 0.07 0.00 80 1020.4
20260901145512 64 345 1.0 2.0 0.00 0.07 0.00 78 1020.4
20260901145014 63 98 1.0 2.0 0.00 0.07 0.00 82 1020.3
20260901144525 63 171 0.0 2.0 0.00 0.07 0.00 82 1020.4
20260901144019 62 175 0.0 2.0 0.00 0.07 0.00 82 1020.3
20260901143504 62 175 0.0 2.0 0.00 0.07 0.00 85 1020.4
20260901143005 61 175 0.0 2.0 0.00 0.07 0.00 85 1020.5
20260901142506 61 192 1.0 2.0 0.00 0.07 0.00 86 1020.5
20260901142007 61 202 0.0 2.0 0.00 0.07 0.00 88 1020.5
20260901141518 60 161 0.0 2.0 0.00 0.07 0.00 88 1020.5
20260901141011 60 209 0.0 2.0 0.00 0.07 0.00 89 1020.5
20260901140512 59 209 0.0 2.0 0.00 0.07 0.00 89 1020.5
20260901140030 59 209 0.0 2.0 0.00 0.07 0.00 89 1020.4
20260901135517 59 209 0.0 2.0 0.00 0.07 0.00 89 1020.5
20260901135005 59 209 0.0 2.0 0.00 0.07 0.00 88 1020.4
20260901134514 59 209 0.0 2.0 0.00 0.07 0.00 89 1020.4
20260901134009 59 210 0.0 2.0 0.00 0.07 0.00 88 1020.3
20260901133513 59 211 0.0 2.0 0.00 0.07 0.00 89 1020.3
20260901133023 58 210 0.0 2.0 0.00 0.07 0.00 89 1020.3
20260901132516 58 180 0.0 2.0 0.00 0.07 0.00 89 1020.1
20260901132019 58 184 0.0 2.0 0.00 0.07 0.00 89 1020.1
20260901131530 58 188 0.0 1.0 0.00 0.07 0.00 88 1020.0
20260901131006 58 188 0.0 1.0 0.00 0.07 0.00 88 1019.8
20260901130508 58 188 0.0 2.0 0.00 0.07 0.00 88 1019.7
20260901130017 58 188 0.0 2.0 0.00 0.07 0.00 88 1019.7
20260901125516 58 188 0.0 3.0 0.00 0.07 0.00 88 1019.8
20260901125014 58 189 0.0 3.0 0.00 0.07 0.00 89 1019.6
20260901124503 58 182 0.0 2.0 0.00 0.07 0.00 89 1019.5
20260901124004 58 182 0.0 2.0 0.00 0.07 0.00 89 1019.5
20260901123503 58 182 0.0 2.0 0.00 0.07 0.00 88 1019.4
20260901123010 58 182 0.0 2.0 0.00 0.07 0.00 89 1019.3
20260901122512 58 183 0.0 2.0 0.00 0.07 0.00 88 1019.2
20260901122011 58 183 0.0 2.0 0.00 0.07 0.00 88 1019.2
20260901121534 58 183 0.0 2.0 0.00 0.07 0.00 88 1019.2
20260901121018 58 183 0.0 2.0 0.00 0.07 0.00 87 1019.3
20260901120504 58 182 0.0 2.0 0.00 0.07 0.00 88 1019.3
20260901120004 58 146 0.0 2.0 0.00 0.07 0.00 88 1019.4
20260901115507 58 250 0.0 2.0 0.00 0.07 0.00 90 1019.4
20260901115008 58 190 0.0 2.0 0.00 0.07 0.00 90 1019.4
20260901114522 58 207 0.0 2.0 0.00 0.07 0.00 91 1019.3
20260901114011 58 197 0.0 2.0 0.00 0.07 0.00 90 1019.3
20260901113511 58 183 0.0 2.0 0.00 0.07 0.00 91 1019.3
20260901113028 58 183 0.0 2.0 0.00 0.07 0.00 91 1019.2
20260901112503 58 183 0.0 2.0 0.00 0.07 0.00 91 1019.2
20260901112003 58 183 0.0 1.0 0.00 0.07 0.00 90 1019.3
20260901111508 59 183 0.0 0.0 0.00 0.07 0.00 90 1019.3
20260901111006 59 183 0.0 0.0 0.00 0.07 0.00 90 1019.4
20260901110510 59 183 0.0 0.0 0.00 0.07 0.00 90 1019.4
20260901110023 59 183 0.0 0.0 0.00 0.07 0.00 91 1019.4
20260901105513 59 183 0.0 0.0 0.00 0.07 0.00 90 1019.4
20260901105019 59 183 0.0 2.0 0.00 0.07 0.00 90 1019.4
20260901104507 59 183 0.0 2.0 0.00 0.07 0.00 90 1019.6
20260901104006 59 183 0.0 2.0 0.00 0.07 0.00 90 1019.6
20260901103507 59 179 0.0 2.0 0.00 0.07 0.00 90 1019.6
20260901103017 59 179 0.0 2.0 0.00 0.07 0.00 90 1019.6
20260901102512 60 219 0.0 2.0 0.00 0.07 0.00 90 1019.6
20260901102013 60 219 0.0 2.0 0.00 0.07 0.00 90 1019.6
20260901101528 60 221 0.0 2.0 0.00 0.07 0.00 90 1019.6
20260901101016 60 229 0.0 2.0 0.00 0.07 0.00 89 1019.8
20260901100503 60 229 0.0 2.0 0.00 0.07 0.00 89 1020.0
20260901100011 60 229 0.0 2.0 0.00 0.07 0.00 89 1019.9
20260901095506 60 159 0.0 2.0 0.00 0.07 0.00 89 1019.8
20260901095008 60 159 0.0 0.0 0.00 0.07 0.00 89 1019.9
20260901094522 60 159 0.0 0.0 0.00 0.07 0.00 90 1019.9
20260901094012 60 159 0.0 1.0 0.00 0.07 0.00 89 1019.9
20260901093516 60 159 0.0 2.0 0.00 0.07 0.00 90 1020.2
20260901090036 60 159 0.0 2.0 0.00 0.07 0.00 90 1020.4
20260901085516 60 159 0.0 2.0 0.00 0.07 0.00 90 1020.5
20260901085016 60 161 0.0 2.0 0.00 0.07 0.00 90 1020.5
20260901084507 60 127 0.0 2.0 0.00 0.07 0.00 90 1020.5
20260901084005 60 127 0.0 2.0 0.00 0.07 0.00 90 1020.5
20260901083504 61 99 0.0 2.0 0.00 0.07 0.00 90 1020.5
20260901083017 61 90 0.0 2.0 0.00 0.07 0.00 90 1020.4
20260901082513 61 90 0.0 2.0 0.00 0.07 0.00 90 1020.5
20260901082017 61 90 0.0 2.0 0.00 0.07 0.00 89 1020.8
20260901081530 61 90 0.0 1.0 0.00 0.07 0.00 89 1020.9
20260901081016 61 90 0.0 2.0 0.00 0.07 0.00 90 1021.0
20260901080503 61 90 0.0 2.0 0.00 0.07 0.00 90 1021.0
20260901080014 61 90 0.0 0.0 0.00 0.07 0.00 90 1021.3
20260901075508 61 90 0.0 0.0 0.00 0.07 0.00 90 1021.2
20260901075013 61 90 0.0 2.0 0.00 0.07 0.00 90 1021.3
20260901074524 61 90 0.0 2.0 0.00 0.07 0.00 90 1021.4
20260901074015 61 90 0.0 2.0 0.00 0.07 0.00 90 1021.3
20260901073513 61 189 0.0 2.0 0.00 0.07 0.00 90 1021.4
20260901073031 61 189 0.0 2.0 0.00 0.07 0.00 90 1021.5
20260901072503 61 189 0.0 0.0 0.00 0.07 0.00 89 1021.5
20260901072004 61 189 0.0 2.0 0.00 0.07 0.00 90 1021.4
20260901071514 61 189 0.0 2.0 0.00 0.07 0.00 90 1021.5
20260901071012 61 201 0.0 2.0 0.00 0.07 0.00 90 1021.5
20260901070512 61 201 0.0 2.0 0.00 0.07 0.00 89 1021.5
20260901070044 61 218 0.0 2.0 0.00 0.07 0.00 89 1021.4
20260901065518 61 218 0.0 2.0 0.00 0.07 0.00 88 1021.2
20260901065021 62 218 0.0 2.0 0.00 0.07 0.00 88 1021.3
20260901064509 62 218 0.0 2.0 0.00 0.07 0.00 87 1021.3
20260901064008 62 218 0.0 2.0 0.00 0.07 0.00 86 1021.2
20260901063508 62 223 0.0 2.0 0.00 0.07 0.00 86 1021.3
20260901063019 62 223 0.0 2.0 0.00 0.07 0.00 84 1021.3
20260901062514 63 133 0.0 2.0 0.00 0.07 0.00 82 1021.3
20260901062012 63 51 0.0 3.0 0.00 0.07 0.00 81 1020.9
20260901061532 63 73 0.0 3.0 0.00 0.07 0.00 79 1021.3
20260901061017 63 208 1.0 3.0 0.00 0.07 0.00 78 1021.7
20260901060506 63 188 1.0 3.0 0.00 0.07 0.00 77 1021.2
20260901060016 63 281 0.0 3.0 0.00 0.07 0.00 78 1021.1
20260901055507 63 240 1.0 3.0 0.00 0.07 0.07 78 1021.0
20260901055013 63 248 0.0 3.0 0.00 0.07 0.07 79 1021.0
20260901054527 62 236 1.0 3.0 0.00 0.07 0.07 79 1021.0
20260901054017 62 247 0.0 2.0 0.00 0.07 0.07 81 1021.1
20260901053515 62 246 0.0 3.0 0.00 0.07 0.07 82 1021.1
20260901053032 61 278 0.0 3.0 0.00 0.07 0.07 85 1021.2
20260901052506 61 287 0.0 2.0 0.00 0.07 0.07 85 1021.3
20260901052010 61 325 0.0 2.0 0.00 0.07 0.07 87 1021.4
20260901051520 61 69 0.0 2.0 0.00 0.07 0.07 89 1021.5
20260901051011 61 223 0.0 2.0 0.00 0.07 0.07 89 1021.5
20260901050519 61 223 0.0 2.0 0.00 0.07 0.07 89 1021.6
20260901050030 61 223 0.0 2.0 0.00 0.07 0.07 89 1021.6
20260901045518 61 223 0.0 2.0 0.00 0.07 0.07 89 1021.6
20260901045015 61 219 0.0 2.0 0.00 0.07 0.07 89 1021.6
20260901044536 61 219 0.0 2.0 0.00 0.07 0.07 89 1021.6
20260901044008 61 198 0.0 2.0 0.00 0.07 0.07 89 1021.5
20260901043509 61 229 0.0 2.0 0.00 0.07 0.07 89 1021.6
20260901043019 61 228 0.0 2.0 0.00 0.07 0.07 89 1021.6
20260901042517 62 198 0.0 3.0 0.00 0.07 0.07 89 1021.5
20260901042013 62 195 0.0 3.0 0.00 0.07 0.07 89 1021.3
20260901041532 62 194 1.0 3.0 0.00 0.07 0.07 88 1021.4
20260901041018 62 119 0.0 2.0 0.00 0.07 0.07 88 1021.5
20260901040519 62 119 0.0 2.0 0.00 0.07 0.07 88 1021.5
20260901040016 63 85 0.0 2.0 0.00 0.07 0.07 88 1021.3
20260901035514 63 50 0.0 2.0 0.00 0.07 0.07 88 1021.2
20260901035014 62 36 1.0 2.0 0.00 0.07 0.07 86 1021.3
20260901034528 62 349 1.0 2.0 0.01 0.07 0.07 88 1021.6
20260901034014 62 352 0.0 2.0 0.01 0.07 0.07 87 1022.0
20260901033518 63 310 0.0 2.0 0.01 0.07 0.07 86 1022.3
20260901033039 63 317 0.0 3.0 0.05 0.07 0.07 85 1022.4
20260901032519 63 336 1.0 3.0 0.07 0.07 0.07 85 1022.1
20260901032012 63 22 1.0 2.0 0.07 0.07 0.07 86 1022.5